CZ-6A DEB, 56280

Orbit data source: Space-Track

CZ-6A DEB, 56280 is space debris in SSO originally from a launch on Fri, 11 Nov 2022 UTC launched from the Taiyaun Space Center, China (TSC). Debris objects in space refer to the collection of defunct objects orbiting the Earth. Examples of debris include non-operational satellites, rocket bodies, and fragments generated from explosions, collisions, or faulty payload assembly.

Loading next visibility...
Identifier
56280, 2022-151ACY
Orbit
SSO
Country
Flag of CNCN / PRC
Related business
Manufacturer
SAST
Mission
Spacecraft
Bus & Motor
Unknown
Mass
Unknown
Launch date (UTC)
2022-11-11 (4 years ago)
Launch vehicle
Unknown
Launch site
Taiyaun Space Center, China (TSC)
Object type
Payload
Rocket body
Debris
Shape & HBR
Unknown shape, 0.1 m
Radar Cross Section
Small (<0.1 m²)

Expand to show TLE details & history
Last TLE update: 13 hours ago

TLE from 13 hours ago
0 CZ-6A DEB
1 56280U 22151ACY 26236.36962399  .00000719  00000-0  48653-3 0  9994
2 56280  98.8836 213.0101 0100131 217.5779 141.8360 14.01062815175337
Epoch: 2026-08-24T08:52Z
TLE epoch observation values (Epoch: 2026-08-24T08:52:15.512Z)
Latitude
-0.00007°
Longitude
107.29317°
Altitude
950.507 km
Speed
7.347 km/s
True Right ascension
14h 12m 02s
True Declination
0° 00' 00"
Sunlit
Object was in daylight at epoch
Visualization orbit readout
Latitude
Unknown
Longitude
Unknown
Altitude
Unknown
Speed
Unknown
Apparent Right ascension
Unknown
Apparent Declination
Unknown
Sunlit
N/A
Visualization observer readout
Local Sidereal Time
12:36:43
Azimuth
Unknown
Elevation
Unknown
Doppler factor
Unknown
Orbital elements
Apogee altitude
960.059 km
Perigee altitude
814.559 km
Semi-major axis
7,265.446 km
Eccentricity
0.01001
Inclination
98.8836°
RAAN
213.0101°
Arg. of periapsis
217.5779°
True anomaly
142.53808°
Mean anomaly
141.836°
Eccentric anomaly
142.18773°
Mean motion
3.50469 °/min
Orbital period
102.72 mins
BSTAR
0.00048653
Loading maneuver chart data...
Computing Atmospheric mass density...
Loading historical data...
Loading historical data...
Loading historical data...
Loading historical data...
Loading historical data...
Loading historical data...
Loading historical data...

Documentation

Showing up to 5 results
|